This is the latest recevied weather packets stored in our database for station/object WX4SGA. If no packets are shown the sender has not sent any weather packets the latest 10 day(s).
| Time | Temp. | Humidity | Pressure | Rain* | Wind** | Luminosity | Snow |
|---|---|---|---|---|---|---|---|
| 1788190434 | 28.33° C | 79% | 1020.3 hPa | 0 mm | - | 752 W/m² | - |
| 1788190130 | 27.78° C | 83% | 1020.3 hPa | 0 mm | - | 732 W/m² | - |
| 1788189826 | 28.89° C | 82% | 1020.3 hPa | 0 mm | - | 162 W/m² | - |
| 1788189521 | 28.33° C | 82% | 1020.3 hPa | 0 mm | - | 686 W/m² | - |
| 1788189220 | 28.33° C | 83% | 1020.3 hPa | 0 mm | - | 642 W/m² | - |
| 1788188915 | 28.33° C | 84% | 1020.7 hPa | 0 mm | - | 671 W/m² | - |
| 1788188611 | 28.33° C | 83% | 1020.3 hPa | 0 mm | - | 666 W/m² | - |
| 1788188310 | 28.33° C | 85% | 1020.3 hPa | 0 mm | - | 603 W/m² | - |
| 1788188006 | 27.78° C | 83% | 1020.3 hPa | 0 mm | - | 638 W/m² | - |
| 1788187702 | 27.22° C | 88% | 1020.3 hPa | 0 mm | - | 618 W/m² | - |
| 1788187398 | 27.22° C | 89% | 1020.3 hPa | 0 mm | - | 680 W/m² | - |
| 1788187098 | 26.67° C | 91% | 1020.3 hPa | 0 mm | - | 653 W/m² | - |
| 1788186793 | 27.22° C | 87% | 1020.3 hPa | 0 mm | - | 143 W/m² | - |
| 1788186488 | 26.67° C | 90% | 1020.3 hPa | 0 mm | - | 569 W/m² | - |
| 1788186183 | 26.11° C | 93% | 1020.3 hPa | 0 mm | - | 244 W/m² | - |
| 1788185882 | 25.56° C | 95% | 1020 hPa | 0 mm | - | 153 W/m² | - |
| 1788185577 | 25° C | 98% | 1020 hPa | 0 mm | - | 119 W/m² | - |
| 1788185273 | 25° C | 99% | 1020 hPa | 0 mm | - | 392 W/m² | - |
| 1788184967 | 25° C | 99% | 1020 hPa | 0 mm | - | 503 W/m² | - |
| 1788184664 | 24.44° C | 99% | 1020 hPa | 0 mm | - | 167 W/m² | - |
| 1788184361 | 24.44° C | 99% | 1020 hPa | 0 mm | - | 183 W/m² | - |
| 1788184056 | 24.44° C | 99% | 1020 hPa | 0 mm | - | 203 W/m² | - |
| 1788183753 | 23.89° C | 99% | 1020 hPa | 0 mm | - | 143 W/m² | - |
| 1788183451 | 24.44° C | 99% | 1020 hPa | 0 mm | - | 167 W/m² | - |
| 1788183146 | 24.44° C | 99% | 1020 hPa | 0 mm | - | 163 W/m² | - |
* Rain latest hour (hover to see other rain measurements)
** Current wind speed in m/s (hover to see current wind gust speed)